| time (UTC) | temp C | wind direction | speed KPH | gust KPH | rain 1hr cm | rain 24hr cm | rain mn cm | humidity % | barometer mb |
| 20260507095047 | 5 | 198 | 0.0 | 3.2 | 0.00 | 1.45 | 0.00 | 97 | 1007.7 |
| 20260507094553 | 5 | 198 | 0.0 | 3.2 | 0.00 | 1.45 | 0.00 | 97 | 1007.7 |
| 20260507094046 | 5 | 0 | 0.0 | 3.2 | 0.00 | 1.45 | 0.00 | 97 | 1007.8 |
| 20260507093546 | 5 | 0 | 0.0 | 3.2 | 0.00 | 1.45 | 0.00 | 97 | 1008.0 |
| 20260507093057 | 5 | 175 | 0.0 | 4.8 | 0.00 | 1.45 | 0.00 | 98 | 1008.0 |
| 20260507092546 | 5 | 175 | 0.0 | 4.8 | 0.00 | 1.45 | 0.00 | 97 | 1007.9 |
| 20260507092045 | 5 | 219 | 0.0 | 4.8 | 0.00 | 1.45 | 0.00 | 98 | 1008.1 |
| 20260507091556 | 5 | 182 | 0.0 | 3.2 | 0.00 | 1.45 | 0.00 | 97 | 1007.8 |
| 20260507091045 | 5 | 0 | 0.0 | 3.2 | 0.00 | 1.45 | 0.00 | 97 | 1007.7 |
| 20260507090544 | 5 | 0 | 0.0 | 3.2 | 0.00 | 1.45 | 0.00 | 97 | 1007.8 |
| 20260507090054 | 5 | 0 | 0.0 | 3.2 | 0.00 | 1.45 | 0.00 | 97 | 1008.1 |
| 20260507085547 | 5 | 0 | 0.0 | 3.2 | 0.00 | 1.45 | 0.00 | 97 | 1008.1 |
| 20260507085048 | 4 | 329 | 0.0 | 3.2 | 0.00 | 1.45 | 0.00 | 97 | 1008.1 |
| 20260507084557 | 4 | 0 | 0.0 | 3.2 | 0.00 | 1.45 | 0.00 | 98 | 1008.1 |
| 20260507084045 | 4 | 0 | 0.0 | 3.2 | 0.00 | 1.45 | 0.00 | 97 | 1008.1 |
| 20260507083544 | 4 | 0 | 0.0 | 3.2 | 0.00 | 1.45 | 0.00 | 97 | 1008.2 |
| 20260507083108 | 4 | 0 | 0.0 | 3.2 | 0.00 | 1.45 | 0.00 | 97 | 1008.1 |
| 20260507082546 | 4 | 0 | 0.0 | 3.2 | 0.00 | 1.45 | 0.00 | 97 | 1008.2 |
| 20260507082049 | 4 | 329 | 0.0 | 3.2 | 0.00 | 1.45 | 0.00 | 97 | 1008.1 |
| 20260507081600 | 4 | 329 | 0.0 | 4.8 | 0.00 | 1.45 | 0.00 | 97 | 1008.0 |
| 20260507081045 | 4 | 329 | 0.0 | 4.8 | 0.00 | 1.45 | 0.00 | 97 | 1008.2 |
| 20260507080544 | 4 | 313 | 1.6 | 3.2 | 0.00 | 1.45 | 0.00 | 97 | 1008.1 |
| 20260507080058 | 4 | 0 | 0.0 | 3.2 | 0.00 | 1.45 | 0.00 | 97 | 1008.1 |
| 20260507075547 | 4 | 0 | 0.0 | 1.6 | 0.00 | 1.45 | 0.00 | 97 | 1008.2 |
| 20260507075045 | 5 | 0 | 0.0 | 3.2 | 0.00 | 1.45 | 0.00 | 97 | 1008.1 |
| 20260507074643 | 4 | 0 | 0.0 | 3.2 | 0.00 | 1.45 | 0.00 | 97 | 1008.0 |
| 20260507074045 | 4 | 0 | 1.6 | 3.2 | 0.00 | 1.45 | 0.00 | 97 | 1008.1 |
| 20260507073545 | 4 | 0 | 0.0 | 3.2 | 0.00 | 1.45 | 0.00 | 97 | 1007.9 |
| 20260507073100 | 5 | 0 | 0.0 | 3.2 | 0.00 | 1.45 | 0.00 | 97 | 1007.9 |
| 20260507072545 | 5 | 0 | 0.0 | 3.2 | 0.00 | 1.45 | 0.00 | 97 | 1007.8 |
| 20260507072048 | 5 | 0 | 0.0 | 3.2 | 0.00 | 1.45 | 0.00 | 97 | 1007.7 |
| 20260507071553 | 5 | 0 | 0.0 | 3.2 | 0.00 | 1.45 | 0.00 | 97 | 1007.7 |
| 20260507071045 | 5 | 0 | 0.0 | 3.2 | 0.00 | 1.45 | 0.00 | 97 | 1007.4 |
| 20260507070545 | 5 | 307 | 0.0 | 1.6 | 0.00 | 1.45 | 0.00 | 97 | 1007.4 |
| 20260507070055 | 5 | 0 | 0.0 | 1.6 | 0.00 | 1.45 | 0.00 | 97 | 1007.4 |
| 20260507065545 | 5 | 0 | 0.0 | 4.8 | 0.00 | 1.45 | 0.00 | 97 | 1007.4 |
| 20260507065045 | 5 | 0 | 0.0 | 4.8 | 0.00 | 1.45 | 0.00 | 97 | 1007.4 |
| 20260507064551 | 5 | 0 | 1.6 | 4.8 | 0.00 | 1.45 | 0.00 | 97 | 1007.5 |
| 20260507064048 | 5 | 0 | 0.0 | 1.6 | 0.00 | 1.45 | 0.00 | 97 | 1007.3 |
| 20260507063545 | 5 | 0 | 0.0 | 1.6 | 0.00 | 1.45 | 0.00 | 97 | 1007.4 |
| 20260507063051 | 5 | 0 | 0.0 | 1.6 | 0.00 | 1.45 | 0.00 | 97 | 1007.6 |
| 20260507062545 | 5 | 0 | 0.0 | 1.6 | 0.00 | 1.45 | 0.00 | 97 | 1007.5 |
| 20260507062047 | 5 | 0 | 0.0 | 4.8 | 0.00 | 1.45 | 0.00 | 97 | 1007.5 |
| 20260507061551 | 5 | 299 | 0.0 | 4.8 | 0.00 | 1.45 | 0.00 | 97 | 1007.6 |
| 20260507061047 | 5 | 298 | 0.0 | 4.8 | 0.00 | 1.45 | 0.00 | 97 | 1007.5 |
| 20260507060546 | 5 | 0 | 0.0 | 0.0 | 0.00 | 1.45 | 0.00 | 97 | 1007.7 |
| 20260507060051 | 5 | 0 | 0.0 | 1.6 | 0.00 | 1.45 | 0.00 | 97 | 1007.8 |
| 20260507055547 | 5 | 0 | 0.0 | 1.6 | 0.00 | 1.45 | 0.00 | 97 | 1007.9 |
| 20260507055046 | 5 | 0 | 0.0 | 1.6 | 0.00 | 1.45 | 0.00 | 97 | 1008.1 |
| 20260507054551 | 5 | 0 | 0.0 | 4.8 | 0.00 | 1.45 | 0.00 | 97 | 1008.1 |
| 20260507054045 | 5 | 0 | 0.0 | 4.8 | 0.00 | 1.45 | 0.00 | 97 | 1008.0 |
| 20260507053547 | 5 | 323 | 0.0 | 8.0 | 0.00 | 1.45 | 0.00 | 97 | 1008.1 |
| 20260507053052 | 5 | 53 | 3.2 | 9.7 | 0.00 | 1.45 | 0.00 | 97 | 1007.8 |
| 20260507052545 | 5 | 0 | 3.2 | 9.7 | 0.00 | 1.45 | 0.00 | 97 | 1007.7 |
| 20260507052045 | 5 | 142 | 3.2 | 8.0 | 0.00 | 1.45 | 0.00 | 97 | 1008.0 |
| 20260507051553 | 5 | 0 | 0.0 | 1.6 | 0.00 | 1.45 | 0.00 | 97 | 1008.1 |
| 20260507051048 | 5 | 0 | 0.0 | 1.6 | 0.00 | 1.45 | 0.00 | 97 | 1008.2 |
| 20260507050550 | 5 | 0 | 0.0 | 3.2 | 0.00 | 1.45 | 0.00 | 96 | 1008.0 |
| 20260507050057 | 5 | 0 | 0.0 | 4.8 | 0.00 | 1.45 | 0.00 | 97 | 1008.1 |
| 20260507045549 | 5 | 200 | 0.0 | 4.8 | 0.00 | 1.65 | 0.00 | 97 | 1008.2 |
| 20260507045046 | 5 | 0 | 0.0 | 1.6 | 0.00 | 1.65 | 0.00 | 97 | 1008.3 |
| 20260507044554 | 6 | 0 | 0.0 | 3.2 | 0.00 | 1.65 | 0.00 | 97 | 1008.2 |
| 20260507044047 | 6 | 0 | 0.0 | 3.2 | 0.00 | 1.65 | 0.00 | 97 | 1008.2 |
| 20260507043547 | 6 | 168 | 0.0 | 6.4 | 0.00 | 1.65 | 0.00 | 97 | 1007.8 |
| 20260507043109 | 6 | 0 | 0.0 | 8.0 | 0.00 | 1.65 | 0.00 | 97 | 1007.8 |
| 20260507042546 | 6 | 161 | 1.6 | 8.0 | 0.00 | 1.65 | 0.00 | 97 | 1007.9 |
| 20260507042047 | 6 | 169 | 1.6 | 9.7 | 0.00 | 1.65 | 0.00 | 97 | 1008.0 |
| 20260507041604 | 6 | 177 | 3.2 | 11.3 | 0.00 | 1.65 | 0.00 | 97 | 1007.9 |
| 20260507041050 | 6 | 157 | 3.2 | 14.5 | 0.00 | 1.65 | 0.00 | 96 | 1008.0 |
| 20260507040547 | 6 | 175 | 3.2 | 14.5 | 0.00 | 1.65 | 0.00 | 97 | 1008.1 |
| 20260507040059 | 6 | 137 | 3.2 | 8.0 | 0.00 | 1.65 | 0.00 | 97 | 1007.9 |
| 20260507035547 | 6 | 186 | 0.0 | 3.2 | 0.00 | 1.70 | 1.65 | 97 | 1008.1 |
| 20260507035047 | 6 | 186 | 0.0 | 3.2 | 0.00 | 1.70 | 1.65 | 97 | 1007.9 |
| 20260507034556 | 6 | 0 | 0.0 | 1.6 | 0.00 | 1.70 | 1.65 | 97 | 1007.9 |
| 20260507034047 | 6 | 0 | 0.0 | 3.2 | 0.00 | 1.70 | 1.65 | 97 | 1007.9 |
| 20260507033547 | 6 | 0 | 0.0 | 4.8 | 0.00 | 1.70 | 1.65 | 97 | 1007.8 |
| 20260507033109 | 6 | 186 | 1.6 | 6.4 | 0.00 | 1.70 | 1.65 | 97 | 1008.0 |
| 20260507032547 | 6 | 173 | 0.0 | 6.4 | 0.00 | 1.70 | 1.65 | 97 | 1007.7 |
| 20260507032050 | 6 | 184 | 1.6 | 6.4 | 0.00 | 1.70 | 1.65 | 97 | 1007.9 |
| 20260507031610 | 6 | 0 | 0.0 | 4.8 | 0.00 | 1.70 | 1.65 | 97 | 1008.0 |
| 20260507031049 | 6 | 170 | 0.0 | 3.2 | 0.00 | 1.70 | 1.65 | 97 | 1007.9 |
| 20260507030546 | 6 | 0 | 0.0 | 3.2 | 0.00 | 1.70 | 1.65 | 97 | 1008.1 |
| 20260507025549 | 6 | 170 | 1.6 | 3.2 | 0.00 | 1.70 | 1.65 | 97 | 1008.2 |
| 20260507025050 | 6 | 0 | 0.0 | 3.2 | 0.00 | 1.70 | 1.65 | 97 | 1008.2 |
| 20260507024632 | 6 | 0 | 0.0 | 3.2 | 0.00 | 1.70 | 1.65 | 97 | 1008.4 |
| 20260507024047 | 6 | 0 | 0.0 | 1.6 | 0.00 | 1.70 | 1.65 | 97 | 1008.4 |
| 20260507023552 | 6 | 0 | 0.0 | 3.2 | 0.03 | 1.70 | 1.65 | 97 | 1008.4 |
| 20260507023058 | 6 | 0 | 0.0 | 4.8 | 0.03 | 1.70 | 1.65 | 97 | 1008.4 |
| 20260507022549 | 6 | 0 | 0.0 | 4.8 | 0.03 | 1.70 | 1.65 | 97 | 1008.6 |
| 20260507022047 | 7 | 142 | 0.0 | 4.8 | 0.05 | 1.70 | 1.65 | 97 | 1008.6 |
| 20260507021558 | 7 | 0 | 1.6 | 4.8 | 0.05 | 1.70 | 1.65 | 96 | 1008.8 |
| 20260507021047 | 7 | 0 | 0.0 | 6.4 | 0.05 | 1.70 | 1.65 | 97 | 1008.7 |
| 20260507020547 | 7 | 218 | 1.6 | 6.4 | 0.05 | 1.70 | 1.65 | 97 | 1008.7 |
| 20260507020109 | 7 | 219 | 1.6 | 4.8 | 0.08 | 1.70 | 1.65 | 97 | 1008.5 |
| 20260507015546 | 7 | 217 | 1.6 | 4.8 | 0.08 | 1.70 | 1.65 | 97 | 1008.4 |
| 20260507015047 | 7 | 184 | 0.0 | 3.2 | 0.08 | 1.70 | 1.65 | 97 | 1008.4 |
| 20260507014605 | 7 | 0 | 0.0 | 3.2 | 0.08 | 1.70 | 1.65 | 97 | 1008.4 |
| 20260507014047 | 7 | 0 | 0.0 | 6.4 | 0.05 | 1.68 | 1.63 | 97 | 1008.5 |
| 20260507013549 | 7 | 0 | 0.0 | 6.4 | 0.05 | 1.68 | 1.63 | 97 | 1008.5 |
| 20260507013054 | 7 | 163 | 0.0 | 3.2 | 0.08 | 1.68 | 1.63 | 97 | 1008.3 |
| 20260507012546 | 7 | 0 | 0.0 | 6.4 | 0.08 | 1.68 | 1.63 | 97 | 1008.4 |
| 20260507012046 | 7 | 0 | 0.0 | 6.4 | 0.05 | 1.65 | 1.60 | 97 | 1008.4 |
| 20260507011552 | 7 | 153 | 0.0 | 3.2 | 0.08 | 1.65 | 1.60 | 97 | 1008.4 |
| 20260507011045 | 8 | 0 | 0.0 | 3.2 | 0.10 | 1.65 | 1.60 | 97 | 1008.3 |
| 20260507010546 | 8 | 0 | 0.0 | 4.8 | 0.10 | 1.65 | 1.60 | 97 | 1008.3 |
| 20260507010054 | 8 | 347 | 1.6 | 4.8 | 0.08 | 1.63 | 1.57 | 97 | 1008.3 |
| 20260507005546 | 7 | 131 | 0.0 | 3.2 | 0.08 | 1.63 | 1.57 | 97 | 1008.2 |
| 20260507005043 | 7 | 0 | 0.0 | 1.6 | 0.08 | 1.63 | 1.57 | 97 | 1008.1 |
| 20260507004554 | 7 | 0 | 0.0 | 1.6 | 0.08 | 1.63 | 1.57 | 97 | 1008.1 |
| 20260507004046 | 7 | 0 | 0.0 | 1.6 | 0.08 | 1.63 | 1.57 | 97 | 1008.0 |
| 20260507003547 | 7 | 0 | 0.0 | 1.6 | 0.08 | 1.63 | 1.57 | 97 | 1007.7 |
| 20260507003056 | 8 | 0 | 0.0 | 1.6 | 0.08 | 1.60 | 1.55 | 96 | 1007.6 |
| 20260507002547 | 7 | 0 | 0.0 | 1.6 | 0.08 | 1.60 | 1.55 | 96 | 1007.6 |
| 20260507002045 | 8 | 0 | 0.0 | 1.6 | 0.08 | 1.60 | 1.55 | 96 | 1007.3 |
| 20260507001557 | 8 | 0 | 0.0 | 1.6 | 0.05 | 1.57 | 1.52 | 96 | 1007.3 |
| 20260507001046 | 8 | 0 | 0.0 | 1.6 | 0.03 | 1.55 | 1.47 | 96 | 1007.6 |
| 20260507000547 | 8 | 65 | 0.0 | 1.6 | 0.03 | 1.55 | 1.47 | 96 | 1007.6 |
| 20260507000058 | 8 | 0 | 0.0 | 0.0 | 0.03 | 1.55 | 1.47 | 96 | 1007.4 |
| 20260506235546 | 8 | 0 | 0.0 | 0.0 | 0.05 | 1.57 | 1.47 | 96 | 1007.3 |
| 20260506235048 | 8 | 0 | 0.0 | 1.6 | 0.05 | 1.57 | 1.47 | 96 | 1007.0 |
| 20260506234601 | 8 | 0 | 0.0 | 1.6 | 0.05 | 1.57 | 1.47 | 96 | 1006.8 |
| 20260506234046 | 8 | 0 | 0.0 | 3.2 | 0.05 | 1.57 | 1.47 | 96 | 1006.8 |
| 20260506233549 | 8 | 0 | 0.0 | 3.2 | 0.05 | 1.57 | 1.47 | 96 | 1006.6 |
| 20260506233054 | 8 | 0 | 0.0 | 1.6 | 0.03 | 1.55 | 1.47 | 96 | 1006.6 |
| 20260506232546 | 8 | 88 | 0.0 | 4.8 | 0.03 | 1.55 | 1.47 | 96 | 1006.5 |
| 20260506232048 | 8 | 0 | 0.0 | 4.8 | 0.03 | 1.55 | 1.47 | 96 | 1006.5 |
| 20260506231557 | 8 | 0 | 0.0 | 4.8 | 0.03 | 1.55 | 1.47 | 96 | 1006.4 |
| 20260506231048 | 8 | 0 | 0.0 | 3.2 | 0.03 | 1.55 | 1.47 | 96 | 1006.2 |
| 20260506230546 | 8 | 348 | 0.0 | 3.2 | 0.03 | 1.55 | 1.47 | 96 | 1006.3 |
| 20260506230058 | 8 | 336 | 0.0 | 3.2 | 0.03 | 1.55 | 1.47 | 96 | 1006.3 |
| 20260506225547 | 8 | 0 | 0.0 | 3.2 | 0.00 | 1.52 | 1.45 | 96 | 1006.2 |
| 20260506225046 | 8 | 0 | 0.0 | 3.2 | 0.00 | 1.52 | 1.45 | 96 | 1006.1 |
| 20260506224553 | 8 | 44 | 1.6 | 3.2 | 0.00 | 1.52 | 1.45 | 96 | 1006.0 |
| 20260506224045 | 8 | 90 | 0.0 | 3.2 | 0.00 | 1.52 | 1.45 | 96 | 1006.0 |
| 20260506223544 | 8 | 0 | 0.0 | 1.6 | 0.00 | 1.52 | 1.45 | 96 | 1006.0 |
| 20260506223057 | 8 | 135 | 0.0 | 1.6 | 0.00 | 1.52 | 1.45 | 96 | 1005.9 |
| 20260506222546 | 8 | 0 | 0.0 | 1.6 | 0.00 | 1.52 | 1.45 | 96 | 1005.9 |
| 20260506222046 | 8 | 0 | 0.0 | 1.6 | 0.00 | 1.52 | 1.45 | 96 | 1005.7 |
| 20260506221553 | 8 | 0 | 0.0 | 1.6 | 0.00 | 1.52 | 1.45 | 96 | 1005.6 |
| 20260506221046 | 8 | 0 | 0.0 | 1.6 | 0.00 | 1.52 | 1.45 | 96 | 1005.6 |
| 20260506220547 | 8 | 0 | 0.0 | 3.2 | 0.00 | 1.52 | 1.45 | 96 | 1005.7 |
| 20260506220057 | 8 | 0 | 0.0 | 4.8 | 0.00 | 1.52 | 1.45 | 96 | 1005.7 |
| 20260506215546 | 8 | 0 | 0.0 | 4.8 | 0.00 | 1.52 | 1.45 | 96 | 1005.6 |
| 20260506215048 | 8 | 163 | 0.0 | 3.2 | 0.00 | 1.52 | 1.45 | 96 | 1005.5 |
| 20260506214553 | 8 | 162 | 0.0 | 3.2 | 0.00 | 1.52 | 1.45 | 96 | 1005.6 |
| 20260506214047 | 8 | 350 | 0.0 | 3.2 | 0.00 | 1.52 | 1.45 | 96 | 1005.5 |
| 20260506213546 | 8 | 0 | 0.0 | 3.2 | 0.00 | 1.52 | 1.45 | 96 | 1005.4 |
| 20260506213127 | 8 | 90 | 0.0 | 4.8 | 0.00 | 1.52 | 1.45 | 96 | 1005.5 |
| 20260506212546 | 8 | 0 | 0.0 | 4.8 | 0.00 | 1.52 | 1.45 | 96 | 1005.5 |
| 20260506212046 | 8 | 0 | 0.0 | 4.8 | 0.00 | 1.52 | 1.45 | 96 | 1005.4 |
| 20260506211608 | 8 | 75 | 1.6 | 4.8 | 0.03 | 1.52 | 1.45 | 96 | 1005.5 |
| 20260506211046 | 8 | 0 | 0.0 | 4.8 | 0.03 | 1.52 | 1.45 | 96 | 1005.4 |
| 20260506210545 | 8 | 0 | 1.6 | 4.8 | 0.08 | 1.52 | 1.45 | 96 | 1005.4 |
| 20260506205545 | 9 | 22 | 1.6 | 9.7 | 0.08 | 1.88 | 1.45 | 96 | 1005.1 |
| 20260506205044 | 9 | 352 | 3.2 | 9.7 | 0.10 | 1.88 | 1.45 | 96 | 1005.2 |
| 20260506204556 | 9 | 331 | 0.0 | 6.4 | 0.10 | 1.88 | 1.45 | 96 | 1005.1 |
| 20260506204046 | 9 | 0 | 0.0 | 8.0 | 0.13 | 1.88 | 1.45 | 96 | 1005.0 |
| 20260506203548 | 10 | 355 | 1.6 | 8.0 | 0.13 | 1.88 | 1.45 | 96 | 1004.9 |
| 20260506203054 | 10 | 0 | 1.6 | 6.4 | 0.15 | 1.88 | 1.45 | 96 | 1004.9 |
| 20260506202547 | 10 | 62 | 0.0 | 6.4 | 0.15 | 1.88 | 1.45 | 96 | 1004.9 |
| 20260506202049 | 10 | 81 | 0.0 | 4.8 | 0.18 | 1.88 | 1.45 | 96 | 1004.9 |
| 20260506201601 | 10 | 0 | 0.0 | 4.8 | 0.18 | 1.85 | 1.42 | 96 | 1004.9 |
| 20260506201048 | 10 | 0 | 1.6 | 6.4 | 0.18 | 1.85 | 1.42 | 96 | 1004.9 |
| 20260506200546 | 10 | 0 | 1.6 | 6.4 | 0.13 | 1.80 | 1.37 | 96 | 1004.9 |
| 20260506200059 | 10 | 51 | 3.2 | 6.4 | 0.13 | 1.80 | 1.37 | 96 | 1004.7 |
| 20260506195547 | 11 | 28 | 1.6 | 9.7 | 0.13 | 1.80 | 1.37 | 96 | 1004.7 |
| 20260506195046 | 11 | 77 | 0.0 | 9.7 | 0.13 | 1.78 | 1.32 | 96 | 1004.6 |
| 20260506194602 | 11 | 71 | 3.2 | 8.0 | 0.13 | 1.78 | 1.32 | 96 | 1004.6 |
| 20260506194046 | 12 | 0 | 1.6 | 8.0 | 0.13 | 1.75 | 1.32 | 96 | 1004.5 |
| 20260506193547 | 12 | 42 | 3.2 | 8.0 | 0.13 | 1.75 | 1.32 | 96 | 1004.5 |
| 20260506193049 | 13 | 15 | 3.2 | 8.0 | 0.13 | 1.73 | 1.30 | 96 | 1004.5 |
| 20260506192551 | 13 | 132 | 0.0 | 4.8 | 0.13 | 1.73 | 1.30 | 96 | 1004.4 |
| 20260506192045 | 14 | 0 | 0.0 | 3.2 | 0.10 | 1.70 | 1.27 | 97 | 1004.4 |
| 20260506191551 | 14 | 0 | 0.0 | 3.2 | 0.08 | 1.68 | 1.24 | 97 | 1004.3 |
| 20260506191047 | 15 | 0 | 0.0 | 3.2 | 0.08 | 1.68 | 1.24 | 97 | 1004.5 |
| 20260506190550 | 14 | 0 | 0.0 | 3.2 | 0.08 | 1.68 | 1.24 | 97 | 1004.5 |
| 20260506190054 | 14 | 240 | 0.0 | 3.2 | 0.10 | 1.68 | 1.24 | 97 | 1004.6 |
| 20260506185546 | 14 | 0 | 0.0 | 4.8 | 0.10 | 1.68 | 1.24 | 97 | 1004.6 |
| 20260506185049 | 14 | 0 | 1.6 | 4.8 | 0.10 | 1.65 | 1.22 | 97 | 1004.6 |
| 20260506184604 | 14 | 0 | 0.0 | 3.2 | 0.13 | 1.65 | 1.22 | 97 | 1004.6 |
| 20260506184047 | 14 | 0 | 0.0 | 3.2 | 0.13 | 1.63 | 1.19 | 97 | 1004.7 |
| 20260506183546 | 14 | 0 | 0.0 | 3.2 | 0.15 | 1.63 | 1.19 | 97 | 1004.5 |
| 20260506183100 | 14 | 0 | 0.0 | 3.2 | 0.15 | 1.60 | 1.17 | 97 | 1004.5 |
| 20260506182545 | 14 | 0 | 0.0 | 3.2 | 0.15 | 1.60 | 1.17 | 97 | 1004.6 |
| 20260506182047 | 15 | 0 | 0.0 | 1.6 | 0.18 | 1.60 | 1.17 | 98 | 1004.6 |
| 20260506181549 | 14 | 0 | 0.0 | 3.2 | 0.20 | 1.60 | 1.17 | 97 | 1004.7 |
| 20260506181046 | 13 | 0 | 0.0 | 3.2 | 0.23 | 1.60 | 1.17 | 97 | 1004.7 |
| 20260506180547 | 13 | 0 | 0.0 | 3.2 | 0.25 | 1.60 | 1.17 | 97 | 1004.9 |
| 20260506180054 | 13 | 0 | 0.0 | 3.2 | 0.25 | 1.57 | 1.14 | 97 | 1005.0 |
| 20260506175545 | 13 | 36 | 0.0 | 4.8 | 0.28 | 1.57 | 1.14 | 97 | 1004.9 |
| 20260506175045 | 13 | 0 | 0.0 | 4.8 | 0.25 | 1.55 | 1.12 | 97 | 1005.1 |
| 20260506174552 | 13 | 352 | 0.0 | 4.8 | 0.25 | 1.52 | 1.09 | 97 | 1005.2 |
| 20260506174045 | 13 | 0 | 0.0 | 3.2 | 0.25 | 1.47 | 1.07 | 97 | 1005.3 |
| 20260506173547 | 13 | 0 | 0.0 | 3.2 | 0.23 | 1.47 | 1.04 | 97 | 1005.3 |
| 20260506173053 | 13 | 0 | 1.6 | 3.2 | 0.25 | 1.45 | 1.02 | 97 | 1005.3 |
| 20260506172549 | 13 | 0 | 0.0 | 3.2 | 0.30 | 1.45 | 1.02 | 97 | 1005.5 |
| 20260506172046 | 13 | 0 | 0.0 | 4.8 | 0.30 | 1.42 | 0.99 | 97 | 1005.5 |
| 20260506171553 | 13 | 321 | 0.0 | 4.8 | 0.30 | 1.40 | 0.97 | 97 | 1005.6 |
| 20260506171050 | 13 | 336 | 1.6 | 4.8 | 0.28 | 1.37 | 0.94 | 97 | 1005.5 |
| 20260506170545 | 13 | 0 | 0.0 | 3.2 | 0.28 | 1.32 | 0.91 | 97 | 1005.6 |
| 20260506170107 | 13 | 334 | 0.0 | 3.2 | 0.28 | 1.32 | 0.89 | 97 | 1005.6 |
| 20260506165548 | 13 | 334 | 0.0 | 3.2 | 0.25 | 1.30 | 0.86 | 97 | 1005.6 |
| 20260506165048 | 13 | 0 | 0.0 | 1.6 | 0.28 | 1.30 | 0.86 | 97 | 1005.5 |
| 20260506164551 | 13 | 0 | 0.0 | 3.2 | 0.25 | 1.27 | 0.84 | 97 | 1005.7 |
| 20260506164046 | 13 | 0 | 0.0 | 4.8 | 0.25 | 1.24 | 0.81 | 97 | 1005.7 |
| 20260506163545 | 13 | 334 | 0.0 | 4.8 | 0.25 | 1.24 | 0.81 | 97 | 1005.8 |
| 20260506163102 | 13 | 334 | 0.0 | 3.2 | 0.20 | 1.19 | 0.76 | 97 | 1005.8 |
| 20260506162545 | 13 | 0 | 0.0 | 3.2 | 0.18 | 1.14 | 0.71 | 97 | 1005.8 |
| 20260506162045 | 13 | 0 | 0.0 | 3.2 | 0.15 | 1.12 | 0.69 | 97 | 1005.8 |
| 20260506161551 | 13 | 0 | 0.0 | 3.2 | 0.15 | 1.09 | 0.66 | 97 | 1006.0 |
| 20260506161045 | 13 | 0 | 0.0 | 3.2 | 0.15 | 1.09 | 0.66 | 97 | 1006.1 |
| 20260506160545 | 13 | 0 | 0.0 | 3.2 | 0.15 | 1.07 | 0.64 | 97 | 1006.2 |
| 20260506160053 | 13 | 319 | 0.0 | 3.2 | 0.13 | 1.04 | 0.61 | 97 | 1006.3 |
| 20260506155545 | 13 | 0 | 0.0 | 3.2 | 0.15 | 1.04 | 0.61 | 97 | 1006.3 |
| 20260506155048 | 12 | 0 | 0.0 | 1.6 | 0.15 | 1.02 | 0.58 | 97 | 1006.4 |
| 20260506154559 | 12 | 0 | 0.0 | 1.6 | 0.15 | 1.02 | 0.58 | 97 | 1006.5 |
| 20260506154046 | 12 | 0 | 0.0 | 1.6 | 0.15 | 0.99 | 0.56 | 97 | 1006.4 |
| 20260506153546 | 12 | 0 | 0.0 | 3.2 | 0.15 | 0.99 | 0.56 | 97 | 1006.7 |
| 20260506153058 | 12 | 0 | 0.0 | 3.2 | 0.15 | 0.99 | 0.56 | 97 | 1006.7 |
| 20260506152545 | 12 | 0 | 0.0 | 4.8 | 0.13 | 0.97 | 0.53 | 97 | 1006.8 |
| 20260506152046 | 12 | 0 | 0.0 | 4.8 | 0.15 | 0.97 | 0.53 | 97 | 1006.8 |
| 20260506151609 | 12 | 355 | 0.0 | 3.2 | 0.13 | 0.94 | 0.51 | 97 | 1006.8 |
| 20260506151048 | 12 | 355 | 0.0 | 3.2 | 0.13 | 0.94 | 0.51 | 97 | 1006.8 |
| 20260506150545 | 12 | 0 | 0.0 | 1.6 | 0.10 | 0.91 | 0.48 | 98 | 1007.0 |
| 20260506150100 | 12 | 355 | 0.0 | 1.6 | 0.13 | 0.91 | 0.48 | 97 | 1007.1 |
| 20260506145546 | 12 | 0 | 0.0 | 3.2 | 0.10 | 0.86 | 0.43 | 97 | 1007.1 |
| 20260506145049 | 12 | 355 | 0.0 | 3.2 | 0.10 | 0.86 | 0.43 | 97 | 1007.2 |
| 20260506144605 | 12 | 0 | 0.0 | 3.2 | 0.13 | 0.86 | 0.43 | 97 | 1007.2 |
| 20260506144047 | 12 | 0 | 0.0 | 3.2 | 0.10 | 0.84 | 0.41 | 97 | 1007.2 |
| 20260506143547 | 12 | 355 | 0.0 | 3.2 | 0.10 | 0.84 | 0.41 | 97 | 1007.2 |
| 20260506143109 | 12 | 355 | 0.0 | 3.2 | 0.10 | 0.84 | 0.41 | 98 | 1007.1 |
| 20260506142545 | 12 | 355 | 0.0 | 3.2 | 0.10 | 0.84 | 0.41 | 98 | 1007.2 |
| 20260506142045 | 12 | 0 | 0.0 | 3.2 | 0.10 | 0.81 | 0.38 | 98 | 1007.2 |
| 20260506141600 | 12 | 0 | 0.0 | 1.6 | 0.10 | 0.81 | 0.38 | 98 | 1007.1 |
| 20260506141046 | 12 | 0 | 0.0 | 1.6 | 0.10 | 0.81 | 0.38 | 98 | 1007.2 |
| 20260506140549 | 12 | 0 | 0.0 | 1.6 | 0.08 | 0.79 | 0.36 | 98 | 1007.1 |
| 20260506140056 | 12 | 0 | 0.0 | 1.6 | 0.10 | 0.79 | 0.36 | 98 | 1007.2 |
| 20260506135545 | 12 | 355 | 0.0 | 1.6 | 0.08 | 0.76 | 0.33 | 98 | 1007.3 |
| 20260506135045 | 12 | 0 | 0.0 | 1.6 | 0.08 | 0.76 | 0.33 | 98 | 1007.2 |
| 20260506134553 | 12 | 0 | 0.0 | 4.8 | 0.08 | 0.74 | 0.30 | 98 | 1007.3 |
| 20260506134046 | 12 | 0 | 0.0 | 4.8 | 0.08 | 0.74 | 0.30 | 98 | 1007.1 |
| 20260506133545 | 12 | 328 | 0.0 | 4.8 | 0.08 | 0.74 | 0.30 | 98 | 1007.2 |
| 20260506133052 | 12 | 0 | 0.0 | 4.8 | 0.08 | 0.74 | 0.30 | 98 | 1007.2 |
| 20260506132545 | 12 | 55 | 1.6 | 4.8 | 0.08 | 0.74 | 0.30 | 98 | 1007.3 |
| 20260506132051 | 12 | 62 | 0.0 | 1.6 | 0.05 | 0.71 | 0.28 | 98 | 1007.4 |
| 20260506131555 | 12 | 0 | 0.0 | 1.6 | 0.05 | 0.71 | 0.28 | 98 | 1007.4 |
| 20260506131050 | 12 | 61 | 0.0 | 1.6 | 0.08 | 0.71 | 0.28 | 98 | 1007.4 |
| 20260506130546 | 12 | 0 | 0.0 | 1.6 | 0.08 | 0.71 | 0.28 | 98 | 1007.6 |
| 20260506125550 | 12 | 0 | 0.0 | 1.6 | 0.05 | 0.69 | 0.25 | 98 | 1007.7 |
| 20260506125045 | 12 | 0 | 0.0 | 1.6 | 0.05 | 0.69 | 0.25 | 98 | 1007.8 |
| 20260506124549 | 12 | 0 | 0.0 | 1.6 | 0.03 | 0.66 | 0.23 | 98 | 1007.7 |
| 20260506124045 | 12 | 0 | 0.0 | 1.6 | 0.03 | 0.66 | 0.23 | 98 | 1007.7 |
| 20260506123545 | 12 | 61 | 0.0 | 1.6 | 0.03 | 0.66 | 0.23 | 98 | 1007.7 |
| 20260506123049 | 12 | 0 | 0.0 | 1.6 | 0.03 | 0.66 | 0.23 | 98 | 1007.7 |
| 20260506122546 | 12 | 0 | 0.0 | 1.6 | 0.03 | 0.66 | 0.23 | 98 | 1007.8 |
| 20260506122045 | 12 | 61 | 0.0 | 3.2 | 0.03 | 0.66 | 0.23 | 98 | 1007.8 |
| 20260506121552 | 11 | 0 | 0.0 | 3.2 | 0.03 | 0.66 | 0.23 | 98 | 1007.8 |
| 20260506121045 | 11 | 0 | 0.0 | 3.2 | 0.00 | 0.64 | 0.20 | 98 | 1007.9 |
| 20260506120545 | 12 | 0 | 0.0 | 3.2 | 0.00 | 0.64 | 0.20 | 98 | 1007.8 |
| 20260506120052 | 12 | 0 | 0.0 | 3.2 | 0.00 | 0.64 | 0.20 | 98 | 1007.8 |
| 20260506115545 | 11 | 0 | 0.0 | 1.6 | 0.00 | 0.64 | 0.20 | 98 | 1007.9 |
| 20260506115045 | 11 | 0 | 0.0 | 1.6 | 0.00 | 0.64 | 0.20 | 98 | 1008.2 |
| 20260506114551 | 11 | 0 | 0.0 | 0.0 | 0.00 | 0.64 | 0.20 | 98 | 1008.0 |
| 20260506114045 | 11 | 0 | 0.0 | 0.0 | 0.00 | 0.64 | 0.20 | 98 | 1008.0 |
| 20260506113546 | 11 | 0 | 0.0 | 0.0 | 0.00 | 0.64 | 0.20 | 98 | 1008.0 |
| 20260506113048 | 11 | 0 | 0.0 | 1.6 | 0.00 | 0.64 | 0.20 | 98 | 1008.0 |
| 20260506112545 | 11 | 0 | 0.0 | 1.6 | 0.00 | 0.64 | 0.20 | 98 | 1007.9 |
| 20260506112045 | 11 | 313 | 0.0 | 1.6 | 0.00 | 0.64 | 0.20 | 98 | 1007.9 |
| 20260506111550 | 11 | 0 | 0.0 | 3.2 | 0.00 | 0.64 | 0.20 | 98 | 1007.8 |
| 20260506111045 | 11 | 0 | 0.0 | 3.2 | 0.00 | 0.64 | 0.20 | 98 | 1007.8 |
| 20260506110548 | 11 | 0 | 0.0 | 3.2 | 0.00 | 0.64 | 0.20 | 98 | 1007.8 |
| 20260506110049 | 11 | 0 | 0.0 | 1.6 | 0.00 | 0.64 | 0.20 | 98 | 1007.7 |
| 20260506105545 | 11 | 313 | 0.0 | 1.6 | 0.00 | 0.64 | 0.20 | 98 | 1007.8 |
| 20260506105046 | 11 | 0 | 0.0 | 1.6 | 0.00 | 0.64 | 0.20 | 98 | 1007.9 |
| 20260506104550 | 11 | 0 | 0.0 | 1.6 | 0.00 | 0.64 | 0.20 | 98 | 1007.8 |
| 20260506104045 | 11 | 0 | 0.0 | 1.6 | 0.00 | 0.64 | 0.20 | 98 | 1008.0 |
| 20260506103547 | 11 | 0 | 0.0 | 1.6 | 0.00 | 0.64 | 0.20 | 98 | 1007.9 |
| 20260506103054 | 11 | 0 | 0.0 | 1.6 | 0.00 | 0.64 | 0.20 | 98 | 1007.8 |
| 20260506102546 | 11 | 0 | 0.0 | 1.6 | 0.00 | 0.64 | 0.20 | 98 | 1007.9 |
| 20260506102046 | 11 | 0 | 0.0 | 3.2 | 0.00 | 0.64 | 0.20 | 98 | 1008.0 |
| 20260506101549 | 11 | 0 | 0.0 | 3.2 | 0.00 | 0.64 | 0.20 | 97 | 1008.0 |
| 20260506101045 | 11 | 0 | 0.0 | 3.2 | 0.00 | 0.64 | 0.20 | 97 | 1008.0 |
| 20260506100545 | 11 | 0 | 0.0 | 3.2 | 0.00 | 0.64 | 0.20 | 98 | 1007.8 |
| 20260506100050 | 11 | 313 | 0.0 | 3.2 | 0.00 | 0.64 | 0.20 | 98 | 1007.8 |
| 20260506095546 | 11 | 0 | 0.0 | 0.0 | 0.00 | 0.64 | 0.20 | 98 | 1007.8 |